Change the Weather History Date:

Thursday, May 16, 2013

  Actual Average Record
Temperature  
Mean Temperature 48 °F -  
Max Temperature 49 °F 62 °F 77 °F (1997)
Min Temperature 46 °F 53 °F 40 °F (2014)
Degree Days  
Heating Degree Days 18    
Moisture  
Dew Point 45 °F    
Average Humidity 89    
Maximum Humidity 100    
Minimum Humidity 67    
Precipitation  
Precipitation 0.47 in - - ()
Sea Level Pressure  
Sea Level Pressure 29.52 in    
Wind  
Wind Speed 5 mph ()    
Max Wind Speed 14 mph    
Max Gust Speed -    
Visibility 4.2 miles    
Events Rain    
Averages and records for this station are not official NWS values.
T = Trace of Precipitation, MM = Missing Value Source: Averaged Metar Reports

Daily Weather History Graph

Daily Weather History Graph

Search for Another Location

Airport or City:

Trip Planner

Search our weather history database for the weather conditions in past years. The results will help you decide how hot, cold, wet, or windy it might be!

Date:

Astronomy

May. 16, 2013 Rise Set
Actual Time 5:48 AM CEST 9:24 PM CEST
Civil Twilight 5:07 AM CEST 10:05 PM CEST
Nautical Twilight 4:11 AM CEST 11:02 PM CEST
Astronomical Twilight 2:50 AM CEST 12:25 AM CEST
Moon 11:17 AM CEST (5/16) 1:27 AM CEST (5/16)
Length of Visible Light 16h 58m
Length of Day
15h 36m
Waxing Crescent, 33% of the Moon is Illuminated
May 16
Waxing Crescent
May 18
First Quarter
May 25
Full
May 31
Last Quarter
Jun 8
New

Hourly Weather History & Observations

Time (CEST) Temp. Windchill Dew Point Humidity Pressure Visibility Wind Dir Wind Speed Gust Speed Precip Events Conditions
12:25 AM 51.8 °F - 42.8 °F 71% 29.62 in 6.2 mi Variable 1.2 mph - N/A   Overcast
1:25 AM 50.0 °F - 42.8 °F 76% 29.59 in 6.2 mi Variable 1.2 mph - N/A   Overcast
1:30 AM 51.8 °F - 41.0 °F 67% 29.59 in 4.3 mi Calm Calm - N/A   Overcast
1:38 AM 50.0 °F - 42.8 °F 76% 29.59 in 5.0 mi Variable 1.2 mph - N/A   Mostly Cloudy
1:53 AM 50.0 °F - 42.8 °F 76% 29.59 in 4.3 mi Variable 1.2 mph - N/A   Overcast
1:59 AM 50.0 °F - 42.8 °F 76% 29.59 in 5.6 mi Variable 2.3 mph - N/A   Overcast
2:00 AM 51 °F - 44 °F 69% 29.61 in 5 mi Calm Calm - -   Scattered Clouds
2:25 AM 50.0 °F - 42.8 °F 76% 29.59 in 6.2 mi Variable 2.3 mph - N/A   Mostly Cloudy
3:25 AM 48.2 °F - 42.8 °F 82% 29.59 in 6.2 mi NNE 4.6 mph - N/A   Mostly Cloudy
4:25 AM 48.2 °F - 42.8 °F 82% 29.59 in 6.2 mi Variable 2.3 mph - N/A   Overcast
5:00 AM 48 °F - 42 °F 75% 29.59 in 11 mi 4.5 mph - -   Overcast
5:25 AM 48.2 °F - 42.8 °F 82% 29.56 in 6.2 mi Variable 3.5 mph - N/A   Mostly Cloudy
6:25 AM 48.2 °F - 42.8 °F 82% 29.56 in 6.2 mi Variable 3.5 mph - N/A   Mostly Cloudy
7:12 AM 48.2 °F - 42.8 °F 82% 29.56 in 5.6 mi Variable 2.3 mph - N/A Rain Light Rain
7:25 AM 48.2 °F - 44.6 °F 87% 29.56 in 5.6 mi Variable 2.3 mph - N/A Rain Light Rain
8:00 AM 48 °F - 45 °F 86% 29.58 in 5 mi 4.5 mph - - Rain Light Rain
8:08 AM 48.2 °F - 46.4 °F 93% 29.56 in 4.3 mi WNW 4.6 mph - N/A Rain Light Rain
8:25 AM 48.2 °F - 46.4 °F 93% 29.56 in 3.7 mi WNW 4.6 mph - N/A Rain Light Rain
8:42 AM 48.2 °F - 46.4 °F 93% 29.56 in - NW 5.8 mph - N/A Rain Light Rain
9:25 AM 48.2 °F - 46.4 °F 93% 29.56 in - NNW 5.8 mph - N/A Rain Light Rain
10:25 AM 48.2 °F - 48.2 °F 100% 29.53 in - NNW 5.8 mph - N/A Rain Light Rain
11:00 AM 49 °F - 47 °F 92% 29.54 in 2 mi NW 6.7 mph - - Rain Light Rain
11:01 AM 48.2 °F - 46.4 °F 93% 29.53 in - NW 6.9 mph - N/A Rain Light Rain
11:08 AM 48.2 °F - 46.4 °F 93% 29.53 in - NW 6.9 mph - N/A Rain Light Rain
11:25 AM 48.2 °F - 48.2 °F 100% 29.53 in 1.7 mi NW 6.9 mph - N/A Rain Rain
11:43 AM 48.2 °F - 48.2 °F 100% 29.50 in - NW 6.9 mph - N/A Rain Light Rain
12:25 PM 50.0 °F - 48.2 °F 94% 29.50 in - NNW 9.2 mph - N/A Rain Light Rain
1:12 PM 50.0 °F - 46.4 °F 87% 29.50 in 3.1 mi NNW 11.5 mph - N/A Rain Light Rain
1:25 PM 48.2 °F - 46.4 °F 93% 29.47 in 2.5 mi NNW 12.7 mph - N/A Rain Light Rain
2:00 PM 49 °F - 47 °F 91% 29.50 in 2 mi NNW 11.2 mph - - Rain Light Rain
2:25 PM 48.2 °F - 46.4 °F 93% 29.47 in 2.5 mi NNW 9.2 mph - N/A Rain Light Rain
3:25 PM 48.2 °F - 46.4 °F 93% 29.47 in - NNW 8.1 mph - N/A Rain Light Rain
4:25 PM 48.2 °F - 46.4 °F 93% 29.47 in 2.5 mi NW 10.4 mph - N/A Rain Light Rain
5:00 PM 49 °F - 47 °F 92% 29.48 in 3 mi NW 8.9 mph - - Rain Light Rain
5:12 PM 48.2 °F - 46.4 °F 93% 29.47 in 3.1 mi WNW 8.1 mph - N/A   Drizzle
5:18 PM 48.2 °F - 46.4 °F 93% 29.47 in 3.1 mi WNW 10.4 mph - N/A   Drizzle
5:25 PM 48.2 °F - 46.4 °F 93% 29.47 in 3.7 mi WNW 10.4 mph - N/A Rain Light Rain
5:57 PM 48.2 °F - 46.4 °F 93% 29.47 in - NW 8.1 mph - N/A Rain Light Rain
6:10 PM 48.2 °F - 48.2 °F 100% 29.47 in - NW 9.2 mph - N/A Rain Light Rain
6:16 PM 48.2 °F - 48.2 °F 100% 29.47 in - NW 9.2 mph - N/A Rain Light Rain
6:22 PM 48.2 °F - 48.2 °F 100% 29.47 in 3.1 mi NW 9.2 mph - N/A Rain Light Rain
6:25 PM 48.2 °F - 46.4 °F 93% 29.47 in 3.1 mi WNW 11.5 mph - N/A Rain Light Rain
6:28 PM 48.2 °F - 46.4 °F 93% 29.47 in 3.1 mi NW 9.2 mph - N/A Rain Light Rain
6:42 PM 48.2 °F - 46.4 °F 93% 29.47 in 3.7 mi WNW 13.8 mph - N/A Rain Light Rain
6:52 PM 48.2 °F - 46.4 °F 93% 29.47 in 4.3 mi WNW 10.4 mph - N/A   Light Drizzle
7:02 PM 48.2 °F - 46.4 °F 93% 29.47 in 4.3 mi WNW 10.4 mph - N/A   Overcast
7:12 PM 48.2 °F - 46.4 °F 93% 29.47 in 5.6 mi WNW 10.4 mph - N/A   Overcast
7:25 PM 48.2 °F - 46.4 °F 93% 29.47 in 4.3 mi WNW 9.2 mph - N/A   Overcast
8:00 PM 47 °F - 46 °F 92% 29.49 in 4 mi WNW 8.9 mph - -   Clear
8:25 PM 46.4 °F 41.5 °F 44.6 °F 93% 29.47 in 3.7 mi WNW 10.4 mph - N/A   Mostly Cloudy
9:25 PM 46.4 °F 41.9 °F 44.6 °F 93% 29.47 in 3.7 mi West 9.2 mph - N/A   Overcast
10:25 PM 46.4 °F 42.9 °F 44.6 °F 93% 29.50 in - West 6.9 mph - N/A   Overcast
11:00 PM 46 °F - 45 °F 95% 29.52 in 2 mi West 8.9 mph - -   Mist
11:09 PM 46.4 °F 42.9 °F 44.6 °F 93% 29.50 in 1.6 mi West 6.9 mph - N/A   Mostly Cloudy
11:25 PM 46.4 °F 43.5 °F 44.6 °F 93% 29.50 in 1.7 mi West 5.8 mph - N/A   Mostly Cloudy